Location: Unspecified
(0.0000°N, 0.0000°E)
Time: 14:46:46
(UTC+00:00)

Tiangong 2 - Pass Details

Date: 28 April 2017
Orbit: 392 x 394 km, 42.8° (Epoch: 19 July)

Event Time Altitude Azimuth Distance (km) Brightness Sun altitude
Exits shadow 04:33:41 34° 158° (SSE) 671 2.3 -20.3°
Maximum altitude 04:34:12 36° 135° (SE) 635 2.3 -20.2°
Drops below altitude 10° 04:37:12 10° 66° (ENE) 1,426 5.1 -19.4°
Sets 04:39:22 0° 57° (ENE) 2,281 6.3 -18.9°
